Flag for Moldova Weather past 2 weeks in Tiraspol, Moldova

Now
75 °F

Clear.


Feels Like: 77 °F
Forecast: 66 / 94 °F
Wind: 13 mph from Southwest

Location: Chisinau International Airport

Current Time: Sep 2, 2015 at 3:35:03 AM

Latest Report: Sep 2, 2015 at 3:00 AM


Visibility: 10 mi

Pressure: 29.86 "Hg

Humidity: 39%

Dew point: 48 °F

Location of TiraspolLocation

Historic Weather in Tiraspol — Graph

°F

Tiraspol temperature yesterday

Maximum temperature yesterday: 97 °F (at 1:30 PM)
Minimum temperature yesterday: 73 °F (at 6:00 AM)
Average temperature yesterday: 85 °F

Past Weeks' High & Low Weather Summary

 TemperatureHumidityPressure
High97 °F (Aug 29, 4:00 PM)88% (Aug 18, 10:00 PM)30.27 "Hg (Aug 18, 10:00 PM)
Low54 °F (Aug 25, 7:00 AM)14% (Sep 1, 6:00 PM)29.86 "Hg (Aug 18, 2:00 AM)
Average74 °F45%30.08 "Hg
* Reported Aug 18 2:00 AM — Sep 2 2:30 AM, Tiraspol, Weather by CustomWeather, © 2015

Note: Actual official high and low records may vary slightly from our data, if they occured in-between our weather recording intervals... More about our weather records

Advertising

Tiraspol weather history for previous 24 hours

 ConditionsComfort  
Time TempWeatherWind HumidityBarometerVisibility
2:30 AM
Wed, Sep 2
77 °FClear.14 mph36%29.86 "Hg10 mi
2:00 AM73 °FClear.12 mph41%29.89 "Hg10 mi
12:30 AM77 °FClear.10 mph34%29.89 "Hg10 mi
12:00 AM77 °FClear.9 mph34%29.89 "Hg10 mi
11:30 PM
Tue, Sep 1
77 °FClear.2 mph34%29.89 "Hg10 mi
11:00 PM77 °FPassing clouds.6 mph34%29.89 "HgN/A
10:30 PM79 °FPassing clouds.7 mph34%29.89 "HgN/A
10:00 PM81 °FClear.2 mph32%29.89 "Hg10 mi
9:30 PM81 °FPassing clouds.7 mph32%29.89 "HgN/A
9:00 PM82 °FClear.7 mph25%29.89 "Hg10 mi
8:30 PM84 °FSunny.9 mph22%29.89 "Hg10 mi
8:00 PM86 °FSunny.10 mph19%29.89 "Hg10 mi
7:30 PM90 °FSunny.15 mph15%29.89 "Hg10 mi
7:00 PM91 °FSunny.18 mph14%29.89 "Hg10 mi
6:30 PM93 °FSunny.16 mph15%29.89 "Hg10 mi
6:00 PM95 °FSunny.16 mph14%29.89 "Hg10 mi
5:30 PM95 °FSunny.16 mph16%29.89 "Hg10 mi
5:00 PM97 °FPassing clouds.17 mph17%29.89 "HgN/A
4:30 PM97 °FSunny.16 mph20%29.89 "Hg10 mi
4:00 PM97 °FSunny.15 mph20%29.92 "Hg10 mi
3:30 PM97 °FPassing clouds.15 mph20%29.92 "HgN/A
3:00 PM97 °FSunny.15 mph18%29.92 "Hg10 mi
2:30 PM97 °FSunny.16 mph19%29.95 "Hg10 mi
2:00 PM97 °FPassing clouds.14 mph22%29.95 "HgN/A
1:30 PM97 °FSunny.16 mph20%29.95 "Hg10 mi
1:00 PM95 °FPassing clouds.15 mph23%29.95 "HgN/A
12:30 PM93 °FSunny.13 mph28%29.95 "Hg10 mi
12:00 PM91 °FPassing clouds.14 mph30%29.95 "HgN/A
11:30 AM90 °FPassing clouds.10 mph31%29.98 "HgN/A
11:00 AM90 °FSunny.14 mph31%29.98 "Hg10 mi
10:30 AM86 °FSunny.14 mph33%29.98 "Hg10 mi
10:00 AM84 °FSunny.12 mph35%29.98 "Hg10 mi
9:30 AM82 °FSunny.10 mph37%29.98 "Hg10 mi
9:00 AM81 °FSunny.13 mph39%29.98 "Hg10 mi
8:30 AM79 °FSunny.8 mph42%29.98 "Hg10 mi
8:00 AM75 °FSunny.6 mph47%30.01 "Hg10 mi
6:30 AM73 °FClear.7 mph47%29.98 "Hg10 mi
6:00 AM73 °FClear.10 mph47%29.98 "Hg10 mi
5:30 AM75 °FClear.12 mph44%30.01 "Hg10 mi
5:00 AM75 °FClear.9 mph44%30.01 "Hg10 mi
4:30 AM75 °FPassing clouds.7 mph44%30.01 "HgN/A
4:00 AM75 °FClear.2 mph41%30.01 "Hg10 mi
3:30 AM75 °FClear.2 mph44%30.01 "Hg10 mi
3:00 AM75 °FClear.1 mph44%30.01 "Hg10 mi
Weather by CustomWeather, © 2015

See weather overviewHow to use our weather pages